STARLINK-34253

Last updated on Sat Jul 19 2025 00:02:08 GMT+0000 (Coordinated Universal Time)

1 64685U 25139X 25199.58335648 .00032245 00000+0 58590-3 0 9992 2 64685 53.1592 138.1095 0000883 93.5257 123.0598 15.49286068 4385
UTC large
Height (km)
Speed (km/s)
/
Latitude / Longitude
Inclination (degrees)
Orbital Period (minutes)
Azimuth
Elevation
Range (km)
Doppler Factor

Next 0 passes for location: London (51.5072 / 0.1276)

Sorry there are no passes over London.